Regional Weather Roundup
Issued by NWS

Home | Current Version | Previous Version | Graphics & Text | Print | Product List | Glossary On
Versions: 1 2 3 4 5 6 7 8 9 10 11 12 13 14 15 16 17 18 19 20 21 22 23 24 25 26 27 28
000
ASUS45 KBOI 091410
RWRID

IDAHO REGIONAL WEATHER ROUNDUP
NATIONAL WEATHER SERVICE BOISE ID
700 AM MST FRI DEC 09 2016

NOTE: "FAIR" INDICATES FEW OR NO CLOUDS BELOW 12000 FEET
WITH NO SIGNIFICANT WEATHER AND/OR OBSTRUCTIONS TO VISIBILITY

IDZ012-014-091500-
SOUTHWEST IDAHO


CITY           SKY/WX    TMP DP  RH WIND       PRES   REMARKS
BOISE          CLOUDY    26  23  88 CALM      30.14R
CALDWELL       CLOUDY    25  23  92 SW5       30.17S WCI  19
MOUNTAIN HOME  CLOUDY    28  23  83 E7        30.13R WCI  21
$$

IDZ016-017-091500-
SOUTHCENTRAL IDAHO


CITY           SKY/WX    TMP DP  RH WIND       PRES   REMARKS
BURLEY         MOCLDY    22  20  92 NE3       30.10S
JEROME         CLOUDY    26  22  84 NE13      30.10S WCI  15
TWIN FALLS     FRZ RAIN  28  26  92 NE8       30.09S FOG     WCI  20
$$

IDZ019>023-091500-
SOUTHEAST IDAHO


CITY           SKY/WX    TMP DP  RH WIND       PRES   REMARKS
IDAHO FALLS    CLOUDY    20  17  88 N5        30.14R FOG     WCI  13
POCATELLO      CLOUDY    21  18  88 NE5       30.14F WCI  15
REXBURG        CLOUDY    20  17  88 N5        30.12S WCI  13
$$

IDZ006-010-011-018-031-032-091500-
CENTRAL IDAHO MOUNTAINS


CITY           SKY/WX    TMP DP  RH WIND       PRES   REMARKS
MCCALL         CLOUDY    20  16  84 CALM      30.02S
HAILEY         FLURRIES  21  19  93 NW7       30.09S WCI  13
STANLEY          N/A     22  19  89 VRB3      30.01F
SALMON         CLOUDY    10   9  92 CALM      30.14S
CHALLIS        CLOUDY    12  11  95 CALM      30.08F
$$

IDZ002-004-006-007-026-091500-
NORTHERN IDAHO


CITY           SKY/WX    TMP DP  RH WIND       PRES   REMARKS
LEWISTON       CLOUDY    24  21  88 CALM      30.16S
LOWELL           N/A     25  19  78 N3        30.22S
COEUR D`ALENE  FLURRIES  15  10  80 NE16      30.16S WCI  -1
MULLAN PASS    LGT SNOW   2  -1  88 S12       29.90R FOG     WCI -15
$$




USA.gov is the U.S. government's official web portal to all federal, state and local government web resources and services.